Date String (YYYY-MM-DD hh:mm:ss) UTC,Instrument flags,Ambient pressure (hPa),Sample flow (lpm),Bypass flow (lpm),Sample temperature (°C),Ambient temperature (°C),ASC tube jacket temperature (°C),LED temperature (°C),Box temperature (°C),Sample RH (%),Span deviation,Mass concentration (μg/m³),Mass concentration (μg/m³),Mass concentration (μg/m³)
DateTimeUTC,F1_M11,P_M11,Q1_M11,Q2_M11,T1_M11,T2_M11,T3_M11,T4_M11,T5_M11,U1_M11,ZSPAN_M11,X0_M11,X2_M11,X1_M11
2022-07-01 14:00:00,,0831.5,4.99,0.00,30.5,29.5,00.0,39.2,32.4,28.0,0000.0,0009.93,0003.80,0002.98
2022-07-01 14:01:00,,0831.5,5.00,0.00,30.5,29.5,00.0,39.3,32.4,28.0,0000.0,0009.50,0003.79,0002.99
2022-07-01 14:02:00,,0831.6,5.00,0.00,30.5,29.5,00.0,39.3,32.4,27.5,0000.0,0009.55,0003.83,0003.02
2022-07-01 14:03:00,,0831.5,5.00,0.00,30.5,29.5,00.0,39.3,32.4,27.2,0000.0,0010.13,0003.86,0003.06
2022-07-01 14:04:00,,0831.5,5.01,0.00,30.5,29.5,00.0,39.3,32.4,27.1,0000.0,0009.55,0003.85,0003.07
2022-07-01 14:05:00,,0831.5,5.00,0.00,30.5,28.9,00.0,39.2,32.3,27.1,0000.0,0009.49,0003.86,0003.07
2022-07-01 14:06:00,,0831.5,5.00,0.00,30.5,28.1,00.0,39.2,32.2,27.8,0000.0,0009.61,0003.88,0003.08
2022-07-01 14:07:00,,0831.6,5.00,0.00,30.4,27.8,00.0,39.2,32.1,27.8,0000.0,0009.84,0003.86,0003.11
2022-07-01 14:08:00,,0831.6,5.00,0.00,30.3,27.8,00.0,39.1,32.0,27.7,0000.0,0009.77,0003.85,0003.12
2022-07-01 14:09:00,,0831.5,5.02,0.00,30.2,27.9,00.0,39.1,31.9,28.2,0000.0,0009.83,0003.87,0003.14
2022-07-01 14:10:00,,0831.5,4.99,0.00,30.2,28.0,00.0,39.1,31.9,28.6,0000.0,0009.28,0003.90,0003.15
2022-07-01 14:11:00,,0831.5,4.99,0.00,30.2,28.1,00.0,39.1,31.9,28.6,0000.0,0009.37,0003.96,0003.17
2022-07-01 14:12:00,,0831.5,5.00,0.00,30.1,28.3,00.0,39.0,31.9,28.7,0000.0,0009.59,0004.01,0003.19
2022-07-01 14:13:00,,0831.5,5.00,0.00,30.1,28.4,00.0,39.0,31.9,28.6,0000.0,0009.42,0003.99,0003.20
2022-07-01 14:14:00,,0831.5,5.01,0.00,30.1,28.5,00.0,39.0,31.9,28.7,0000.0,0008.66,0003.98,0003.21
2022-07-01 14:15:00,,0831.5,5.00,0.00,30.1,28.6,00.0,39.0,31.9,29.1,0000.0,0008.57,0003.99,0003.23
2022-07-01 14:16:00,,0831.5,4.99,0.00,30.1,28.7,00.0,39.0,32.0,29.1,0000.0,0008.59,0004.00,0003.25
2022-07-01 14:17:00,,0831.5,5.01,0.00,30.1,28.7,00.0,39.0,32.0,28.9,0000.0,0008.59,0004.00,0003.28
2022-07-01 14:18:00,,0831.5,5.01,0.00,30.1,28.8,00.0,39.0,32.0,28.8,0000.0,0008.07,0004.01,0003.31
2022-07-01 14:19:00,,0831.6,4.99,0.00,30.1,28.9,00.0,39.0,32.0,28.8,0000.0,0008.03,0004.01,0003.34
2022-07-01 14:20:00,,0831.6,4.99,0.00,30.1,28.9,00.0,39.0,32.0,28.8,0000.0,0008.02,0004.03,0003.37
2022-07-01 14:21:00,,0831.5,5.01,0.00,30.2,29.0,00.0,39.0,32.1,29.2,0000.0,0008.27,0004.03,0003.39
2022-07-01 14:22:00,,0831.5,4.99,0.00,30.2,29.0,00.0,39.0,32.1,29.3,0000.0,0008.61,0004.05,0003.43
2022-07-01 14:23:00,,0831.5,4.99,0.00,30.2,29.1,00.0,39.0,32.1,29.2,0000.0,0008.65,0004.08,0003.47
2022-07-01 14:24:00,,0831.5,5.00,0.00,30.2,29.1,00.0,39.0,32.1,29.4,0000.0,0008.25,0004.11,0003.51
2022-07-01 14:25:00,,0831.5,5.01,0.00,30.2,29.1,00.0,39.0,32.1,29.1,0000.0,0008.23,0004.15,0003.55
2022-07-01 14:26:00,,0831.5,5.02,0.00,30.2,29.2,00.0,39.0,32.1,28.9,0000.0,0008.38,0004.20,0003.59
2022-07-01 14:27:00,,0831.5,4.99,0.00,30.2,29.2,00.0,39.0,32.1,29.0,0000.0,0008.94,0004.24,0003.62
2022-07-01 14:28:00,,0831.5,4.99,0.00,30.2,29.2,00.0,39.0,32.1,29.0,0000.0,0009.95,0004.28,0003.65
2022-07-01 14:29:00,,0831.5,5.00,0.00,30.3,29.2,00.0,39.0,32.1,29.2,0000.0,0010.05,0004.33,0003.70
2022-07-01 14:30:00,,0831.5,5.01,0.00,30.3,29.2,00.0,39.1,32.2,29.1,0000.0,0010.09,0004.36,0003.72
2022-07-01 14:31:00,,0831.6,5.00,0.00,30.3,29.3,00.0,39.1,32.2,29.1,0000.0,0010.19,0004.38,0003.75
2022-07-01 14:32:00,,0831.6,4.99,0.00,30.3,29.3,00.0,39.1,32.2,28.6,0000.0,0010.03,0004.43,0003.78
2022-07-01 14:33:00,,0831.6,5.00,0.00,30.3,29.3,00.0,39.1,32.2,28.8,0000.0,0009.58,0004.44,0003.80
2022-07-01 14:34:00,,0831.7,5.00,0.00,30.3,29.3,00.0,39.1,32.2,29.1,0000.0,0009.53,0004.46,0003.82
2022-07-01 14:35:00,,0831.7,5.00,0.00,30.4,29.4,00.0,39.1,32.3,28.5,0000.0,0010.15,0004.49,0003.83
2022-07-01 14:36:00,,0831.7,5.00,0.00,30.4,29.4,00.0,39.1,32.3,28.5,0000.0,0010.28,0004.49,0003.83
2022-07-01 14:37:00,,0831.7,5.00,0.00,30.4,29.4,00.0,39.1,32.3,28.4,0000.0,0010.27,0004.49,0003.84
2022-07-01 14:38:00,,0831.7,5.00,0.00,30.4,29.4,00.0,39.1,32.3,28.1,0000.0,0010.02,0004.52,0003.85
2022-07-01 14:39:00,,0831.7,5.01,0.00,30.4,29.4,00.0,39.1,32.3,28.0,0000.0,0009.12,0004.54,0003.86
2022-07-01 14:40:00,,0831.7,5.00,0.00,30.4,29.4,00.0,39.2,32.3,27.7,0000.0,0008.79,0004.53,0003.85
2022-07-01 14:41:00,,0831.7,5.00,0.00,30.4,29.5,00.0,39.2,32.3,28.0,0000.0,0008.82,0004.56,0003.88
2022-07-01 14:42:00,,0831.7,5.00,0.00,30.5,29.1,00.0,39.1,32.3,28.7,0000.0,0008.76,0004.60,0003.90
2022-07-01 14:43:00,,0831.7,4.99,0.00,30.4,28.3,00.0,39.1,32.1,29.3,0000.0,0008.66,0004.57,0003.90
2022-07-01 14:44:00,,0831.7,5.00,0.00,30.4,27.8,00.0,39.1,32.0,29.3,0000.0,0008.77,0004.60,0003.91
2022-07-01 14:45:00,,0831.7,5.00,0.00,30.3,27.7,00.0,39.1,31.9,29.1,0000.0,0009.31,0004.62,0003.94
2022-07-01 14:46:00,,0831.7,5.02,0.00,30.2,27.8,00.0,39.0,31.9,29.0,0000.0,0009.49,0004.65,0003.97
2022-07-01 14:47:00,,0831.7,5.00,0.00,30.1,27.9,00.0,39.0,31.8,29.1,0000.0,0009.30,0004.71,0004.00
2022-07-01 14:48:00,,0831.6,5.00,0.00,30.1,28.0,00.0,39.0,31.8,29.3,0000.0,0009.38,0004.76,0004.00
2022-07-01 14:49:00,,0831.6,5.00,0.00,30.1,28.2,00.0,38.9,31.8,29.3,0000.0,0009.42,0004.78,0004.02
2022-07-01 14:50:00,,0831.6,5.00,0.00,30.0,28.3,00.0,38.9,31.8,29.4,0000.0,0009.52,0004.78,0004.03
2022-07-01 14:51:00,,0831.7,4.99,0.00,30.0,28.4,00.0,38.9,31.8,29.8,0000.0,0009.73,0004.79,0004.03
2022-07-01 14:52:00,,0831.7,5.00,0.00,30.0,28.5,00.0,38.9,31.9,29.9,0000.0,0010.24,0004.78,0004.02
2022-07-01 14:53:00,,0831.7,5.01,0.00,30.0,28.6,00.0,38.9,31.9,30.2,0000.0,0010.25,0004.79,0004.02
2022-07-01 14:54:00,,0831.7,4.99,0.00,30.1,28.7,00.0,38.9,31.9,29.6,0000.0,0010.26,0004.80,0004.04
2022-07-01 14:55:00,,0831.7,5.01,0.00,30.1,28.8,00.0,38.9,31.9,29.4,0000.0,0010.24,0004.84,0004.07
2022-07-01 14:56:00,,0831.8,5.01,0.00,30.1,28.8,00.0,38.9,32.0,29.5,0000.0,0009.67,0004.82,0004.05
2022-07-01 14:57:00,,0831.7,5.00,0.00,30.1,28.9,00.0,38.9,32.0,29.2,0000.0,0009.22,0004.81,0004.03
2022-07-01 14:58:00,,0831.7,5.00,0.00,30.1,28.9,00.0,38.9,32.0,29.4,0000.0,0009.28,0004.81,0004.03
2022-07-01 14:59:00,,0831.8,5.00,0.00,30.1,29.0,00.0,38.9,32.0,29.5,0000.0,0009.17,0004.78,0004.04
